Total_Precipitation_Accumulation
1.40 1.45 1.44 1.48 1.40 1.52 1.73 1.93 1.89 1.92 1.95 1.81 1.54 1.38 1.37 1.33 1.30 1.36 1.38 1.63 1.53 1.48 1.85 1.96 1.80 1.61 1.47 1.23 1.02 0.85 0.75 0.70 0.63 0.49 0.42 0.46 0.55 0.60 0.55 0.47 0.43 0.41 0.34
1.75 1.66 1.50 1.52 1.48 1.55 1.65 1.84 1.94 2.20 2.13 2.03 1.61 1.43 1.45 1.52 1.49 1.54 1.60 1.86 1.73 1.50 1.65 1.79 1.88 1.82 1.67 1.51 1.27 1.07 0.89 0.80 0.70 0.50 0.43 0.41 0.48 0.57 0.55 0.55 0.50 0.46 0.39
1.91 1.82 1.63 1.52 1.58 1.65 1.73 1.78 1.91 2.18 2.10 1.97 1.67 1.56 1.49 1.41 1.27 1.31 1.43 1.59 1.54 1.45 1.51 1.59 1.72 1.75 1.74 1.74 1.62 1.46 1.18 0.96 0.80 0.62 0.49 0.38 0.34 0.39 0.40 0.45 0.49 0.48 0.41
1.89 1.84 1.62 1.46 1.68 1.69 1.74 1.87 1.95 2.08 2.15 2.16 1.88 1.63 1.51 1.40 1.20 1.22 1.22 1.25 1.34 1.12 1.31 1.51 1.64 1.69 1.86 1.98 2.01 1.98 1.67 1.26 0.95 0.77 0.60 0.45 0.35 0.33 0.29 0.29 0.35 0.36 0.30
1.77 1.82 1.56 1.44 1.68 1.84 1.83 1.71 1.97 2.18 2.13 2.15 1.87 1.63 1.39 1.22 1.06 1.02 1.06 1.02 1.07 1.05 1.09 1.18 1.30 1.41 1.78 2.20 2.38 2.38 2.20 1.73 1.24 0.98 0.83 0.69 0.54 0.45 0.33 0.26 0.27 0.24 0.21
1.57 1.78 1.52 1.51 1.76 1.82 1.78 1.86 2.01 2.18 2.05 2.09 1.88 1.46 1.20 0.94 0.90 0.81 0.74 0.77 0.73 0.69 0.76 0.97 1.25 1.18 1.50 1.84 2.05 2.27 2.44 2.27 1.76 1.30 1.10 0.97 0.84 0.66 0.46 0.34 0.28 0.26 0.21
1.61 1.89 1.66 1.67 1.72 1.66 1.66 1.85 1.98 1.91 1.80 2.20 2.13 1.42 0.91 0.72 0.63 0.49 0.51 0.52 0.47 0.51 0.67 0.94 1.14 1.20 1.16 1.24 1.40 1.63 2.03 2.27 2.13 1.71 1.44 1.25 1.11 0.85 0.62 0.51 0.37 0.29 0.23
1.59 1.71 1.73 1.65 1.66 1.63 1.49 1.58 1.83 1.71 1.43 1.87 2.04 1.82 1.19 0.75 0.53 0.37 0.38 0.39 0.44 0.57 0.64 0.71 0.93 1.12 1.11 1.26 1.18 1.11 1.47 1.91 2.18 2.13 1.84 1.51 1.22 0.93 0.74 0.63 0.48 0.38 0.31
1.63 1.71 1.62 1.47 1.44 1.44 1.33 1.34 1.54 1.61 1.41 1.45 1.81 2.07 1.58 0.98 0.72 0.48 0.48 0.52 0.63 0.75 0.76 0.80 0.88 1.00 1.08 1.26 1.39 1.38 1.22 1.37 1.85 2.37 2.32 1.87 1.35 1.01 0.83 0.77 0.70 0.54 0.43
1.76 1.67 1.50 1.34 1.19 1.15 1.12 1.09 1.26 1.38 1.38 1.19 1.33 1.47 1.44 1.34 1.20 0.79 0.58 0.61 0.76 0.84 0.87 0.91 0.94 0.99 1.08 1.28 1.43 1.46 1.19 1.06 1.28 1.98 2.36 2.24 1.78 1.27 1.00 1.01 1.21 1.06 0.70
1.71 1.54 1.41 1.30 1.19 1.09 1.02 1.01 1.05 1.09 1.13 1.05 1.10 1.16 1.25 1.25 1.19 1.09 0.82 0.79 0.80 0.67 0.68 0.74 0.88 1.13 1.22 1.33 1.52 1.48 1.37 1.32 1.27 1.39 1.64 1.83 1.84 1.59 1.34 1.35 1.72 1.87 1.54
1.28 1.21 1.13 1.04 0.99 0.99 1.01 0.98 0.95 0.96 0.98 1.00 1.02 1.04 1.15 1.24 1.28 1.29 1.11 0.98 0.88 0.73 0.71 0.72 0.80 0.99 1.10 1.18 1.23 1.33 1.33 1.28 1.17 1.13 1.17 1.26 1.39 1.54 1.63 1.79 2.14 2.44 2.50
0.71 0.69 0.71 0.73 0.75 0.75 0.76 0.78 0.78 0.79 0.87 0.95 0.97 1.03 1.13 1.22 1.31 1.34 1.25 1.05 0.95 0.85 0.90 0.86 0.79 0.90 0.93 1.11 1.19 1.09 0.95 0.95 0.83 0.81 0.86 0.93 1.07 1.24 1.35 1.49 1.83 2.22 2.52
0.51 0.49 0.53 0.56 0.57 0.60 0.62 0.66 0.66 0.66 0.68 0.74 0.79 0.95 1.07 1.08 1.18 1.28 1.29 1.24 1.15 1.09 1.16 1.09 0.94 0.90 0.94 1.04 1.04 0.93 0.87 0.75 0.61 0.53 0.54 0.58 0.66 0.83 1.01 1.17 1.35 1.55 1.77
0.45 0.46 0.50 0.54 0.58 0.61 0.63 0.61 0.62 0.63 0.72 0.77 0.79 0.90 0.99 1.04 1.10 1.19 1.28 1.33 1.37 1.34 1.31 1.25 1.04 0.98 0.95 0.92 0.97 0.90 0.95 0.76 0.51 0.42 0.41 0.43 0.44 0.48 0.60 0.78 0.95 1.11 1.32
0.44 0.47 0.50 0.56 0.59 0.59 0.57 0.56 0.56 0.60 0.69 0.79 0.89 0.99 1.04 1.04 1.06 1.15 1.27 1.44 1.54 1.52 1.38 1.15 1.03 1.07 1.09 0.99 0.93 0.80 0.75 0.73 0.55 0.43 0.39 0.39 0.39 0.41 0.46 0.60 0.75 0.88 1.03
0.42 0.46 0.50 0.52 0.54 0.54 0.55 0.58 0.58 0.64 0.70 0.75 0.79 0.91 1.00 1.02 1.06 1.11 1.20 1.29 1.44 1.57 1.44 1.22 1.17 1.22 1.28 1.25 1.09 0.90 0.75 0.69 0.59 0.47 0.38 0.37 0.37 0.42 0.48 0.55 0.66 0.77 0.85
0.49 0.50 0.53 0.54 0.52 0.55 0.64 0.70 0.70 0.74 0.79 0.81 0.82 0.84 0.84 0.89 1.00 1.02 1.08 1.12 1.23 1.43 1.39 1.30 1.33 1.37 1.39 1.33 1.25 1.07 0.88 0.77 0.71 0.55 0.42 0.37 0.36 0.38 0.42 0.42 0.50 0.65 0.77
0.55 0.56 0.62 0.69 0.71 0.71 0.72 0.77 0.83 0.85 0.78 0.74 0.74 0.73 0.71 0.73 0.79 0.87 0.97 0.96 0.98 1.11 1.25 1.33 1.43 1.50 1.57 1.46 1.28 1.15 1.02 0.93 0.74 0.64 0.53 0.43 0.40 0.38 0.39 0.39 0.43 0.51 0.64
0.47 0.52 0.61 0.71 0.81 0.87 0.89 0.85 0.80 0.78 0.73 0.68 0.63 0.60 0.61 0.65 0.67 0.72 0.81 0.86 0.88 0.97 1.11 1.21 1.38 1.58 1.61 1.65 1.52 1.31 1.21 1.15 0.91 0.67 0.62 0.55 0.49 0.44 0.40 0.36 0.37 0.44 0.54
0.44 0.56 0.67 0.77 0.90 0.97 0.91 0.87 0.78 0.73 0.71 0.64 0.57 0.52 0.50 0.49 0.52 0.59 0.61 0.67 0.76 0.86 0.90 0.99 1.14 1.39 1.53 1.64 1.60 1.41 1.27 1.29 1.16 0.87 0.72 0.67 0.63 0.57 0.51 0.45 0.36 0.36 0.44
0.40 0.49 0.56 0.63 0.66 0.62 0.62 0.59 0.54 0.53 0.54 0.51 0.49 0.48 0.44 0.40 0.42 0.43 0.41 0.47 0.55 0.61 0.72 0.86 0.94 1.14 1.35 1.44 1.56 1.64 1.52 1.37 1.32 1.17 1.06 0.98 0.86 0.80 0.67 0.53 0.43 0.34 0.34
0.36 0.40 0.42 0.46 0.47 0.48 0.38 0.33 0.31 0.32 0.38 0.40 0.43 0.45 0.36 0.30 0.37 0.41 0.38 0.33 0.35 0.38 0.46 0.65 0.78 0.89 1.12 1.33 1.51 1.67 1.67 1.60 1.51 1.44 1.35 1.32 1.11 0.94 0.80 0.68 0.59 0.45 0.37
0.41 0.42 0.41 0.41 0.46 0.43 0.33 0.25 0.22 0.22 0.28 0.31 0.37 0.42 0.43 0.39 0.38 0.42 0.43 0.38 0.33 0.33 0.35 0.41 0.51 0.68 0.94 1.32 1.53 1.59 1.72 1.76 1.73 1.66 1.58 1.55 1.40 1.20 1.05 0.92 0.81 0.61 0.49
0.50 0.47 0.44 0.44 0.48 0.49 0.38 0.25 0.22 0.24 0.31 0.32 0.35 0.41 0.46 0.46 0.44 0.35 0.38 0.39 0.38 0.38 0.32 0.35 0.41 0.53 0.72 0.99 1.38 1.52 1.56 1.51 1.48 1.33 1.20 1.23 1.28 1.29 1.26 1.16 1.01 0.87 0.71
0.59 0.55 0.50 0.53 0.57 0.62 0.55 0.33 0.27 0.30 0.36 0.42 0.52 0.53 0.46 0.41 0.39 0.32 0.36 0.43 0.40 0.37 0.40 0.41 0.41 0.43 0.48 0.64 0.94 1.18 1.23 1.20 1.11 1.12 0.93 0.87 0.90 0.98 1.10 1.06 0.96 0.90 0.84